Year,Month,Day,Hour,Minute,Value (Times are PST for temperature in C)
2015,01,22,00,00,5.60
2015,01,22,00,01,5.60
2015,01,22,00,02,5.60
2015,01,22,00,03,5.60
2015,01,22,00,04,5.60
2015,01,22,00,05,5.60
2015,01,22,00,06,5.60
2015,01,22,00,07,5.60
2015,01,22,00,08,5.60
2015,01,22,00,09,5.60
2015,01,22,00,10,5.60
2015,01,22,00,11,5.60
2015,01,22,00,12,5.60
2015,01,22,00,13,5.60
2015,01,22,00,14,5.60
2015,01,22,00,15,5.60
2015,01,22,00,16,5.60
2015,01,22,00,17,5.60
2015,01,22,00,18,5.60
2015,01,22,00,19,5.60
2015,01,22,00,20,5.60
2015,01,22,00,21,5.60
2015,01,22,00,22,5.60
2015,01,22,00,23,5.60
2015,01,22,00,24,5.60
2015,01,22,00,25,5.60
2015,01,22,00,26,5.60
2015,01,22,00,27,5.60
2015,01,22,00,28,5.60
2015,01,22,00,29,5.60
2015,01,22,00,30,5.60
2015,01,22,00,31,5.60
2015,01,22,00,32,5.60
2015,01,22,00,33,5.50
2015,01,22,00,34,5.50
2015,01,22,00,35,5.50
2015,01,22,00,36,5.50
2015,01,22,00,37,5.50
2015,01,22,00,38,5.50
2015,01,22,00,39,5.50
2015,01,22,00,40,5.50
2015,01,22,00,41,5.50
2015,01,22,00,42,5.50
2015,01,22,00,43,5.50
2015,01,22,00,44,5.50
2015,01,22,00,45,5.50
2015,01,22,00,46,5.50
2015,01,22,00,47,5.40
2015,01,22,00,48,5.40
2015,01,22,00,49,5.50
2015,01,22,00,50,5.40
2015,01,22,00,51,5.50
2015,01,22,00,52,5.50
2015,01,22,00,53,5.50
2015,01,22,00,54,5.50
2015,01,22,00,55,5.50
2015,01,22,00,56,5.50
2015,01,22,00,57,5.50
2015,01,22,00,58,5.50
2015,01,22,00,59,5.50
2015,01,22,01,00,5.50
2015,01,22,01,01,5.50
2015,01,22,01,02,5.50
2015,01,22,01,03,5.50
2015,01,22,01,04,5.50
2015,01,22,01,05,5.50
2015,01,22,01,06,5.50
2015,01,22,01,07,5.50
2015,01,22,01,08,5.50
2015,01,22,01,09,5.50
2015,01,22,01,10,5.50
2015,01,22,01,11,5.50
2015,01,22,01,12,5.50
2015,01,22,01,13,5.50
2015,01,22,01,14,5.50
2015,01,22,01,15,5.50
2015,01,22,01,16,5.50
2015,01,22,01,17,5.50
2015,01,22,01,18,5.50
2015,01,22,01,19,5.50
2015,01,22,01,20,5.50
2015,01,22,01,21,5.50
2015,01,22,01,22,5.50
2015,01,22,01,23,5.50
2015,01,22,01,24,5.50
2015,01,22,01,25,5.50
2015,01,22,01,26,5.50
2015,01,22,01,27,5.50
2015,01,22,01,28,5.50
2015,01,22,01,29,5.50
2015,01,22,01,30,5.50
2015,01,22,01,31,5.50
2015,01,22,01,32,5.50
2015,01,22,01,33,5.50
2015,01,22,01,34,5.50
2015,01,22,01,35,5.50
2015,01,22,01,36,5.50
2015,01,22,01,37,5.50
2015,01,22,01,38,5.50
2015,01,22,01,39,5.50
2015,01,22,01,40,5.50
2015,01,22,01,41,5.50
2015,01,22,01,42,5.50
2015,01,22,01,43,5.50
2015,01,22,01,44,5.50
2015,01,22,01,45,5.50
2015,01,22,01,46,5.50
2015,01,22,01,47,5.50
2015,01,22,01,48,5.50
2015,01,22,01,49,5.50
2015,01,22,01,50,5.50
2015,01,22,01,51,5.50
2015,01,22,01,52,5.50
2015,01,22,01,53,5.50
2015,01,22,01,54,5.50
2015,01,22,01,55,5.50
2015,01,22,01,56,5.50
2015,01,22,01,57,5.50
2015,01,22,01,58,5.50
2015,01,22,01,59,5.50
2015,01,22,02,00,5.50
2015,01,22,02,01,5.50
2015,01,22,02,02,5.50
2015,01,22,02,03,5.50
2015,01,22,02,04,5.50
2015,01,22,02,05,5.50
2015,01,22,02,06,5.50
2015,01,22,02,07,5.50
2015,01,22,02,08,5.50
2015,01,22,02,09,5.50
2015,01,22,02,10,5.50
2015,01,22,02,11,5.50
2015,01,22,02,12,5.50
2015,01,22,02,13,5.50
2015,01,22,02,14,5.50
2015,01,22,02,15,5.50
2015,01,22,02,16,5.50
2015,01,22,02,17,5.50
2015,01,22,02,18,5.50
2015,01,22,02,19,5.50
2015,01,22,02,20,5.50
2015,01,22,02,21,5.50
2015,01,22,02,22,5.50
2015,01,22,02,23,5.50
2015,01,22,02,24,5.50
2015,01,22,02,25,5.50
2015,01,22,02,26,5.50
2015,01,22,02,27,5.50
2015,01,22,02,28,5.40
2015,01,22,02,29,5.40
2015,01,22,02,30,5.40
2015,01,22,02,31,5.40
2015,01,22,02,32,5.40
2015,01,22,02,33,5.40
2015,01,22,02,34,5.40
2015,01,22,02,35,5.40
2015,01,22,02,36,5.40
2015,01,22,02,37,5.40
2015,01,22,02,38,5.40
2015,01,22,02,39,5.40
2015,01,22,02,40,5.40
2015,01,22,02,41,5.40
2015,01,22,02,42,5.40
2015,01,22,02,43,5.40
2015,01,22,02,44,5.40
2015,01,22,02,45,5.40
2015,01,22,02,46,5.40
2015,01,22,02,47,5.40
2015,01,22,02,48,5.40
2015,01,22,02,49,5.40
2015,01,22,02,50,5.40
2015,01,22,02,51,5.40
2015,01,22,02,52,5.40
2015,01,22,02,53,5.40
2015,01,22,02,54,5.40
2015,01,22,02,55,5.40
2015,01,22,02,56,5.40
2015,01,22,02,57,5.40
2015,01,22,02,58,5.50
2015,01,22,02,59,5.40
2015,01,22,03,00,5.50
2015,01,22,03,01,5.40
2015,01,22,03,02,5.40
2015,01,22,03,03,5.40
2015,01,22,03,04,5.40
2015,01,22,03,05,5.40
2015,01,22,03,06,5.50
2015,01,22,03,07,5.50
2015,01,22,03,08,5.50
2015,01,22,03,09,5.40
2015,01,22,03,10,5.40
2015,01,22,03,11,5.40
2015,01,22,03,12,5.40
2015,01,22,03,13,5.40
2015,01,22,03,14,5.40
2015,01,22,03,15,5.40
2015,01,22,03,16,5.40
2015,01,22,03,17,5.40
2015,01,22,03,18,5.40
2015,01,22,03,19,5.40
2015,01,22,03,20,5.40
2015,01,22,03,21,5.40
2015,01,22,03,22,5.40
2015,01,22,03,23,5.40
2015,01,22,03,24,5.50
2015,01,22,03,25,5.50
2015,01,22,03,26,5.50
2015,01,22,03,27,5.40
2015,01,22,03,28,5.40
2015,01,22,03,29,5.40
2015,01,22,03,30,5.40
2015,01,22,03,31,5.40
2015,01,22,03,32,5.40
2015,01,22,03,33,5.40
2015,01,22,03,34,5.40
2015,01,22,03,35,5.40
2015,01,22,03,36,5.40
2015,01,22,03,37,5.40
2015,01,22,03,38,5.40
2015,01,22,03,39,5.50
2015,01,22,03,40,5.50
2015,01,22,03,41,5.50
2015,01,22,03,42,5.50
2015,01,22,03,43,5.50
2015,01,22,03,44,5.50
2015,01,22,03,45,5.50
2015,01,22,03,46,5.50
2015,01,22,03,47,5.50
2015,01,22,03,48,5.50
2015,01,22,03,49,5.60
2015,01,22,03,50,5.50
2015,01,22,03,51,5.60
2015,01,22,03,52,5.60
2015,01,22,03,53,5.60
2015,01,22,03,54,5.60
2015,01,22,03,55,5.50
2015,01,22,03,56,5.50
2015,01,22,03,57,5.50
2015,01,22,03,58,5.50
2015,01,22,03,59,5.50
2015,01,22,04,00,5.50
2015,01,22,04,01,5.50
2015,01,22,04,02,5.50
2015,01,22,04,03,5.50
2015,01,22,04,04,5.50
2015,01,22,04,05,5.50
2015,01,22,04,06,5.50
2015,01,22,04,07,5.50
2015,01,22,04,08,5.50
2015,01,22,04,09,5.50
2015,01,22,04,10,5.50
2015,01,22,04,11,5.50
2015,01,22,04,12,5.50
2015,01,22,04,13,5.50
2015,01,22,04,14,5.50
2015,01,22,04,15,5.50
2015,01,22,04,16,5.50
2015,01,22,04,17,5.50
2015,01,22,04,18,5.50
2015,01,22,04,19,5.50
2015,01,22,04,20,5.50
2015,01,22,04,21,5.50
2015,01,22,04,22,5.50
2015,01,22,04,23,5.50
2015,01,22,04,24,5.50
2015,01,22,04,25,5.50
2015,01,22,04,26,5.50
2015,01,22,04,27,5.50
2015,01,22,04,28,5.50
2015,01,22,04,29,5.50
2015,01,22,04,30,5.50
2015,01,22,04,31,5.50
2015,01,22,04,32,5.60
2015,01,22,04,33,5.60
2015,01,22,04,34,5.60
2015,01,22,04,35,5.60
2015,01,22,04,36,5.60
2015,01,22,04,37,5.60
2015,01,22,04,38,5.60
2015,01,22,04,39,5.60
2015,01,22,04,40,5.60
2015,01,22,04,41,5.60
2015,01,22,04,42,5.60
2015,01,22,04,43,5.60
2015,01,22,04,44,5.60
2015,01,22,04,45,5.60
2015,01,22,04,46,5.60
2015,01,22,04,47,5.60
2015,01,22,04,48,5.60
2015,01,22,04,49,5.60
2015,01,22,04,50,5.60
2015,01,22,04,51,5.60
2015,01,22,04,52,5.60
2015,01,22,04,53,5.60
2015,01,22,04,54,5.60
2015,01,22,04,55,5.60
2015,01,22,04,56,5.60
2015,01,22,04,57,5.60
2015,01,22,04,58,5.50
2015,01,22,04,59,5.50
2015,01,22,05,00,5.60
2015,01,22,05,01,5.50
2015,01,22,05,02,5.50
2015,01,22,05,03,5.50
2015,01,22,05,04,5.60
2015,01,22,05,05,5.60
2015,01,22,05,06,5.60
2015,01,22,05,07,5.60
2015,01,22,05,08,5.60
2015,01,22,05,09,5.60
2015,01,22,05,10,5.60
2015,01,22,05,11,5.60
2015,01,22,05,12,5.60
2015,01,22,05,13,5.60
2015,01,22,05,14,5.60
2015,01,22,05,15,5.60
2015,01,22,05,16,5.60
2015,01,22,05,17,5.60
2015,01,22,05,18,5.60
2015,01,22,05,19,5.60
2015,01,22,05,20,5.60
2015,01,22,05,21,5.60
2015,01,22,05,22,5.60
2015,01,22,05,23,5.60
2015,01,22,05,24,5.60
2015,01,22,05,25,5.60
2015,01,22,05,26,5.70
2015,01,22,05,27,5.70
2015,01,22,05,28,5.70
2015,01,22,05,29,5.70
2015,01,22,05,30,5.70
2015,01,22,05,31,5.70
2015,01,22,05,32,5.70
2015,01,22,05,33,5.70
2015,01,22,05,34,5.70
2015,01,22,05,35,5.70
2015,01,22,05,36,5.70
2015,01,22,05,37,5.70
2015,01,22,05,38,5.80
2015,01,22,05,39,5.80
2015,01,22,05,40,5.80
2015,01,22,05,41,5.80
2015,01,22,05,42,5.80
2015,01,22,05,43,5.80
2015,01,22,05,44,5.80
2015,01,22,05,45,5.80
2015,01,22,05,46,5.80
2015,01,22,05,47,5.80
2015,01,22,05,48,5.80
2015,01,22,05,49,5.80
2015,01,22,05,50,5.80
2015,01,22,05,51,5.80
2015,01,22,05,52,5.80
2015,01,22,05,53,5.80
2015,01,22,05,54,5.80
2015,01,22,05,55,5.80
2015,01,22,05,56,5.80
2015,01,22,05,57,5.80
2015,01,22,05,58,5.80
2015,01,22,05,59,5.80
2015,01,22,06,00,5.80
2015,01,22,06,01,5.80
2015,01,22,06,02,5.80
2015,01,22,06,03,5.80
2015,01,22,06,04,5.80
2015,01,22,06,05,5.80
2015,01,22,06,06,5.80
2015,01,22,06,07,5.80
2015,01,22,06,08,5.80
2015,01,22,06,09,5.80
2015,01,22,06,10,5.80
2015,01,22,06,11,5.80
2015,01,22,06,12,5.80
2015,01,22,06,13,5.80
2015,01,22,06,14,5.80
2015,01,22,06,15,5.80
2015,01,22,06,16,5.80
2015,01,22,06,17,5.80
2015,01,22,06,18,5.80
2015,01,22,06,19,5.80
2015,01,22,06,20,5.80
2015,01,22,06,21,5.80
2015,01,22,06,22,5.80
2015,01,22,06,23,5.80
2015,01,22,06,24,5.80
2015,01,22,06,25,5.80
2015,01,22,06,26,5.80
2015,01,22,06,27,5.80
2015,01,22,06,28,5.80
2015,01,22,06,29,5.80
2015,01,22,06,30,5.80
2015,01,22,06,31,5.80
2015,01,22,06,32,5.80
2015,01,22,06,33,5.80
2015,01,22,06,34,5.80
2015,01,22,06,35,5.80
2015,01,22,06,36,5.80
2015,01,22,06,37,5.80
2015,01,22,06,38,5.80
2015,01,22,06,39,5.80
2015,01,22,06,40,5.80
2015,01,22,06,41,5.80
2015,01,22,06,42,5.80
2015,01,22,06,43,5.80
2015,01,22,06,44,5.80
2015,01,22,06,45,5.80
2015,01,22,06,46,5.80
2015,01,22,06,47,5.80
2015,01,22,06,48,5.80
2015,01,22,06,49,5.80
2015,01,22,06,50,5.80
2015,01,22,06,51,5.80
2015,01,22,06,52,5.80
2015,01,22,06,53,5.80
2015,01,22,06,54,5.80
2015,01,22,06,55,5.80
2015,01,22,06,56,5.80
2015,01,22,06,57,5.80
2015,01,22,06,58,5.90
2015,01,22,06,59,5.90
2015,01,22,07,00,5.90
2015,01,22,07,01,5.90
2015,01,22,07,02,5.90
2015,01,22,07,03,5.90
2015,01,22,07,04,5.90
2015,01,22,07,05,5.90
2015,01,22,07,06,5.90
2015,01,22,07,07,5.90
2015,01,22,07,08,5.90
2015,01,22,07,09,5.90
2015,01,22,07,10,5.90
2015,01,22,07,11,5.90
2015,01,22,07,12,6.00
2015,01,22,07,13,6.00
2015,01,22,07,14,6.00
2015,01,22,07,15,6.00
2015,01,22,07,16,6.00
2015,01,22,07,17,6.00
2015,01,22,07,18,6.00
2015,01,22,07,19,6.00
2015,01,22,07,20,6.00
2015,01,22,07,21,6.00
2015,01,22,07,22,6.00
2015,01,22,07,23,6.00
2015,01,22,07,24,6.00
2015,01,22,07,25,6.00
2015,01,22,07,26,6.00
2015,01,22,07,27,6.00
2015,01,22,07,28,6.00
2015,01,22,07,29,6.00
2015,01,22,07,30,6.00
2015,01,22,07,31,6.00
2015,01,22,07,32,6.00
2015,01,22,07,33,6.00
2015,01,22,07,34,6.00
2015,01,22,07,35,6.00
2015,01,22,07,36,6.00
2015,01,22,07,37,6.00
2015,01,22,07,38,6.00
2015,01,22,07,39,6.00
2015,01,22,07,40,6.00
2015,01,22,07,41,6.00
2015,01,22,07,42,6.00
2015,01,22,07,43,6.00
2015,01,22,07,44,6.00
2015,01,22,07,45,6.00
2015,01,22,07,46,6.00
2015,01,22,07,47,6.00
2015,01,22,07,48,6.00
2015,01,22,07,49,6.00
2015,01,22,07,50,6.00
2015,01,22,07,51,6.10
2015,01,22,07,52,6.10
2015,01,22,07,53,6.10
2015,01,22,07,54,6.10
2015,01,22,07,55,6.10
2015,01,22,07,56,6.10
2015,01,22,07,57,6.10
2015,01,22,07,58,6.10
2015,01,22,07,59,6.10
2015,01,22,08,00,6.10
2015,01,22,08,01,6.00
2015,01,22,08,02,6.10
2015,01,22,08,03,6.10
2015,01,22,08,04,6.10
2015,01,22,08,05,6.10
2015,01,22,08,06,6.10
2015,01,22,08,07,6.10
2015,01,22,08,08,6.10
2015,01,22,08,09,6.10
2015,01,22,08,10,6.10
2015,01,22,08,11,6.10
2015,01,22,08,12,6.10
2015,01,22,08,13,6.10
2015,01,22,08,14,6.10
2015,01,22,08,15,6.10
2015,01,22,08,16,6.10
2015,01,22,08,17,6.10
2015,01,22,08,18,6.10
2015,01,22,08,19,6.10
2015,01,22,08,20,6.10
2015,01,22,08,21,6.10
2015,01,22,08,22,6.10
2015,01,22,08,23,6.10
2015,01,22,08,24,6.10
2015,01,22,08,25,6.10
2015,01,22,08,26,6.10
2015,01,22,08,27,6.10
2015,01,22,08,28,6.10
2015,01,22,08,29,6.10
2015,01,22,08,30,6.20
2015,01,22,08,31,6.20
2015,01,22,08,32,6.20
2015,01,22,08,33,6.20
2015,01,22,08,34,6.20
2015,01,22,08,35,6.20
2015,01,22,08,36,6.20
2015,01,22,08,37,6.20
2015,01,22,08,38,6.20
2015,01,22,08,39,6.20
2015,01,22,08,40,6.20
2015,01,22,08,41,6.20
2015,01,22,08,42,6.20
2015,01,22,08,43,6.20
2015,01,22,08,44,6.20
2015,01,22,08,45,6.20
2015,01,22,08,46,6.20
2015,01,22,08,47,6.20
2015,01,22,08,48,6.20
2015,01,22,08,49,6.20
2015,01,22,08,50,6.20
2015,01,22,08,51,6.30
2015,01,22,08,52,6.20
2015,01,22,08,53,6.20
2015,01,22,08,54,6.20
2015,01,22,08,55,6.20
2015,01,22,08,56,6.30
2015,01,22,08,57,6.30
2015,01,22,08,58,6.30
2015,01,22,08,59,6.30
2015,01,22,09,00,6.30
2015,01,22,09,01,6.30
2015,01,22,09,02,6.30
2015,01,22,09,03,6.30
2015,01,22,09,04,6.30
2015,01,22,09,05,6.30
2015,01,22,09,06,6.30
2015,01,22,09,07,6.30
2015,01,22,09,08,6.20
2015,01,22,09,09,6.20
2015,01,22,09,10,6.20
2015,01,22,09,11,6.20
2015,01,22,09,12,6.20
2015,01,22,09,13,6.20
2015,01,22,09,14,6.20
2015,01,22,09,15,6.20
2015,01,22,09,16,6.20
2015,01,22,09,17,6.20
2015,01,22,09,18,6.20
2015,01,22,09,19,6.20
2015,01,22,09,20,6.20
2015,01,22,09,21,6.30
2015,01,22,09,22,6.30
2015,01,22,09,23,6.30
2015,01,22,09,24,6.30
2015,01,22,09,25,6.30
2015,01,22,09,26,6.30
2015,01,22,09,27,6.30
2015,01,22,09,28,6.30
2015,01,22,09,29,6.30
2015,01,22,09,30,6.30
2015,01,22,09,31,6.30
2015,01,22,09,32,6.30
2015,01,22,09,33,6.30
2015,01,22,09,34,6.30
2015,01,22,09,35,6.30
2015,01,22,09,36,6.30
2015,01,22,09,37,6.30
2015,01,22,09,38,6.30
2015,01,22,09,39,6.30
2015,01,22,09,40,6.30
2015,01,22,09,41,6.30
2015,01,22,09,42,6.40
2015,01,22,09,43,6.40
2015,01,22,09,44,6.40
2015,01,22,09,45,6.40
2015,01,22,09,46,6.40
2015,01,22,09,47,6.40
2015,01,22,09,48,6.40
2015,01,22,09,49,6.40
2015,01,22,09,50,6.40
2015,01,22,09,51,6.40
2015,01,22,09,52,6.40
2015,01,22,09,53,6.40
2015,01,22,09,54,6.40
2015,01,22,09,55,6.50
2015,01,22,09,56,6.50
2015,01,22,09,57,6.50
2015,01,22,09,58,6.50
2015,01,22,09,59,6.50
2015,01,22,10,00,6.50
2015,01,22,10,01,6.50
2015,01,22,10,02,6.50
2015,01,22,10,03,6.50
2015,01,22,10,04,6.50
2015,01,22,10,05,6.50
2015,01,22,10,15,6.60
2015,01,22,10,16,6.60
2015,01,22,10,17,6.60
2015,01,22,10,18,6.60
2015,01,22,10,19,6.60
2015,01,22,10,20,6.60
2015,01,22,10,21,6.60
